• In Hungary
  • List of Countries
  • For 7 days
  • Water Temperature
  • Satellite Maps
  • Weather Map
  • News
  • Weather Widgets
  • user-avatar
    Login

    Hourly Weather Ladosno

    Today, 23 October, Tuesday

    Time Temperature Precipitation Wind Pressure Humidity
    00:00 +6°C° 0.3 mm 4 mps 745 mmHg 89%
    01:00 +5°C° 0.3 mm 4 mps 745 mmHg 90%
    02:00 +5°C° 0 mm 4 mps 744 mmHg 92%
    03:00 +4°C° 0 mm 3 mps 744 mmHg 93%
    04:00 +3°C° 0 mm 3 mps 744 mmHg 94%
    05:00 +3°C° 0 mm 3 mps 743 mmHg 95%
    06:00 +3°C° 0 mm 3 mps 743 mmHg 94%
    07:00 +2°C° 0 mm 3 mps 743 mmHg 93%
    08:00 +2°C° 0 mm 3 mps 742 mmHg 92%
    09:00 +3°C° 0 mm 3 mps 741 mmHg 86%
    10:00 +5°C° 0 mm 4 mps 740 mmHg 79%
    11:00 +6°C° 0 mm 4 mps 740 mmHg 72%
    12:00 +6°C° 0 mm 5 mps 738 mmHg 71%
    13:00 +6°C° 0 mm 5 mps 737 mmHg 69%
    14:00 +7°C° 0 mm 6 mps 736 mmHg 67%
    15:00 +5°C° 0.1 mm 6 mps 735 mmHg 69%
    16:00 +4°C° 0.1 mm 6 mps 733 mmHg 72%
    17:00 +4°C° 0.1 mm 6 mps 732 mmHg 74%
    18:00 +4°C° 0.1 mm 6 mps 730 mmHg 76%
    19:00 +3°C° 0.1 mm 6 mps 729 mmHg 77%
    20:00 +3°C° 0.1 mm 6 mps 727 mmHg 79%
    21:00 +3°C° 0.4 mm 6 mps 726 mmHg 81%
    22:00 +3°C° 0.4 mm 6 mps 725 mmHg 82%
    23:00 +3°C° 0.4 mm 5 mps 724 mmHg 84%

    Tomorrow, 24 October, Wednesday

    Time Temperature Precipitation Wind Pressure Humidity
    00:00 +3°C° 0.8 mm 5 mps 723 mmHg 86%
    01:00 +4°C° 0.8 mm 4 mps 722 mmHg 88%
    02:00 +4°C° 0.8 mm 4 mps 722 mmHg 90%
    03:00 +4°C° 0.6 mm 4 mps 721 mmHg 90%
    04:00 +5°C° 0.6 mm 4 mps 721 mmHg 90%
    05:00 +5°C° 0.6 mm 4 mps 720 mmHg 89%
    06:00 +4°C° 0.1 mm 4 mps 720 mmHg 88%
    07:00 +4°C° 0.1 mm 4 mps 720 mmHg 88%
    08:00 +3°C° 0.1 mm 5 mps 720 mmHg 87%
    09:00 +3°C° 0 mm 5 mps 721 mmHg 83%
    10:00 +4°C° 0 mm 4 mps 721 mmHg 80%
    11:00 +5°C° 0 mm 4 mps 721 mmHg 77%
    12:00 +5°C° 0 mm 4 mps 721 mmHg 76%
    13:00 +5°C° 0 mm 4 mps 722 mmHg 75%
    14:00 +5°C° 0 mm 3 mps 722 mmHg 74%
    15:00 +5°C° 0 mm 3 mps 723 mmHg 78%
    16:00 +4°C° 0 mm 3 mps 723 mmHg 81%
    17:00 +4°C° 0 mm 3 mps 724 mmHg 85%
    18:00 +4°C° 0.1 mm 4 mps 724 mmHg 85%
    19:00 +3°C° 0.1 mm 5 mps 725 mmHg 85%
    20:00 +3°C° 0.1 mm 5 mps 726 mmHg 85%
    21:00 +3°C° 0.3 mm 6 mps 726 mmHg 84%
    22:00 +3°C° 0.3 mm 6 mps 727 mmHg 83%
    23:00 +3°C° 0.3 mm 6 mps 727 mmHg 82%

    Day after tomorrow, 25 October, Thursday

    Time Temperature Precipitation Wind Pressure Humidity
    00:00 +3°C° 0.2 mm 6 mps 728 mmHg 82%
    01:00 +2°C° 0.2 mm 6 mps 729 mmHg 81%
    02:00 +2°C° 0.2 mm 6 mps 729 mmHg 81%
    03:00 +2°C° 0 mm 6 mps 730 mmHg 81%
    04:00 +1°C° 0 mm 6 mps 730 mmHg 82%
    05:00 +1°C° 0 mm 6 mps 731 mmHg 82%
    06:00 +1°C° 0 mm 6 mps 731 mmHg 82%
    07:00 +1°C° 0 mm 6 mps 731 mmHg 81%
    08:00 +1°C° 0 mm 5 mps 732 mmHg 80%
    09:00 +2°C° 0.1 mm 5 mps 732 mmHg 78%
    10:00 +2°C° 0.1 mm 5 mps 732 mmHg 76%
    11:00 +3°C° 0.1 mm 5 mps 732 mmHg 74%
    12:00 +3°C° 0 mm 5 mps 731 mmHg 70%
    13:00 +5°C° 0 mm 4 mps 731 mmHg 67%
    14:00 +5°C° 0 mm 4 mps 731 mmHg 64%
    15:00 +4°C° 0 mm 3 mps 731 mmHg 69%
    16:00 +3°C° 0 mm 3 mps 731 mmHg 75%
    17:00 +3°C° 0 mm 2 mps 731 mmHg 80%
    18:00 +3°C° 0 mm 2 mps 731 mmHg 83%
    19:00 +2°C° 0 mm 2 mps 732 mmHg 86%
    20:00 +2°C° 0 mm 2 mps 732 mmHg 89%
    21:00 +2°C° 0 mm 2 mps 732 mmHg 90%
    22:00 +1°C° 0 mm 2 mps 732 mmHg 91%
    23:00 +1°C° 0 mm 2 mps 733 mmHg 93%

    26 October, Friday

    Time Temperature Precipitation Wind Pressure Humidity
    00:00 +1°C° 0 mm 2 mps 733 mmHg 93%
    01:00 +1°C° 0 mm 2 mps 733 mmHg 94%
    02:00 -1°C° 0 mm 2 mps 733 mmHg 94%
    03:00 -1°C° 0 mm 2 mps 734 mmHg 94%
    04:00 -1°C° 0 mm 2 mps 734 mmHg 94%
    05:00 0°C° 0 mm 3 mps 734 mmHg 93%
    06:00 0°C° 0.1 mm 3 mps 734 mmHg 92%
    07:00 0°C° 0.1 mm 3 mps 734 mmHg 91%
    08:00 +1°C° 0.1 mm 3 mps 734 mmHg 90%
    09:00 +1°C° 0 mm 4 mps 735 mmHg 85%
    10:00 +3°C° 0 mm 4 mps 735 mmHg 81%
    11:00 +3°C° 0 mm 4 mps 735 mmHg 77%
    12:00 +4°C° 0 mm 4 mps 736 mmHg 74%
    13:00 +4°C° 0 mm 4 mps 736 mmHg 71%
    14:00 +5°C° 0 mm 4 mps 736 mmHg 68%
    15:00 +4°C° 0 mm 4 mps 737 mmHg 72%
    16:00 +3°C° 0 mm 3 mps 737 mmHg 76%
    17:00 +2°C° 0 mm 3 mps 738 mmHg 80%
    18:00 +2°C° 0 mm 3 mps 738 mmHg 83%
    19:00 +1°C° 0 mm 3 mps 738 mmHg 85%
    20:00 +1°C° 0 mm 3 mps 738 mmHg 88%
    21:00 +1°C° 0 mm 3 mps 738 mmHg 89%
    22:00 +1°C° 0 mm 3 mps 738 mmHg 90%
    23:00 +1°C° 0 mm 3 mps 738 mmHg 91%

    27 October, Saturday

    Time Temperature Precipitation Wind Pressure Humidity
    00:00 +1°C° 0.1 mm 3 mps 738 mmHg 90%
    01:00 +1°C° 0.1 mm 4 mps 738 mmHg 89%
    02:00 +1°C° 0.1 mm 4 mps 738 mmHg 88%
    03:00 +2°C° 0.4 mm 5 mps 737 mmHg 87%
    04:00 +2°C° 0.4 mm 5 mps 736 mmHg 86%
    05:00 +3°C° 0.4 mm 6 mps 736 mmHg 85%
    06:00 +3°C° 0.4 mm 6 mps 735 mmHg 85%
    07:00 +3°C° 0.4 mm 7 mps 734 mmHg 85%
    08:00 +4°C° 0.4 mm 7 mps 734 mmHg 85%
    09:00 +4°C° 0.3 mm 7 mps 733 mmHg 84%
    10:00 +5°C° 0.3 mm 8 mps 733 mmHg 83%
    11:00 +5°C° 0.3 mm 8 mps 733 mmHg 82%
    12:00 +6°C° 0.5 mm 8 mps 733 mmHg 79%
    13:00 +6°C° 0.5 mm 8 mps 733 mmHg 77%
    14:00 +6°C° 0.5 mm 8 mps 733 mmHg 74%
    15:00 +6°C° 0.2 mm 7 mps 733 mmHg 75%
    16:00 +5°C° 0.2 mm 6 mps 733 mmHg 76%
    17:00 +5°C° 0.2 mm 5 mps 733 mmHg 77%
    18:00 +4°C° 0 mm 6 mps 733 mmHg 76%
    19:00 +4°C° 0 mm 6 mps 734 mmHg 76%
    20:00 +4°C° 0 mm 7 mps 734 mmHg 75%
    21:00 +3°C° 0 mm 6 mps 735 mmHg 77%
    22:00 +2°C° 0 mm 6 mps 736 mmHg 78%
    23:00 +2°C° 0 mm 6 mps 737 mmHg 80%

    28 October, Sunday

    Time Temperature Precipitation Wind Pressure Humidity
    00:00 +1°C° 0 mm 5 mps 738 mmHg 81%
    01:00 0°C° 0 mm 4 mps 739 mmHg 83%
    02:00 0°C° 0 mm 3 mps 740 mmHg 85%
    03:00 0°C° 0 mm 3 mps 741 mmHg 87%
    04:00 -1°C° 0 mm 3 mps 742 mmHg 89%
    05:00 -1°C° 0 mm 2 mps 742 mmHg 92%
    06:00 -1°C° 0 mm 2 mps 743 mmHg 91%
    07:00 -1°C° 0 mm 2 mps 744 mmHg 91%
    08:00 -1°C° 0 mm 2 mps 744 mmHg 91%
    09:00 +1°C° 0 mm 2 mps 745 mmHg 82%
    10:00 +2°C° 0 mm 2 mps 746 mmHg 74%
    11:00 +3°C° 0 mm 2 mps 746 mmHg 65%
    12:00 +4°C° 0 mm 1 mps 746 mmHg 63%
    13:00 +4°C° 0 mm 1 mps 747 mmHg 60%
    14:00 +4°C° 0 mm 1 mps 747 mmHg 58%
    15:00 +4°C° 0 mm 1 mps 747 mmHg 62%
    16:00 +3°C° 0 mm 1 mps 748 mmHg 66%
    17:00 +3°C° 0 mm 1 mps 748 mmHg 70%
    18:00 +1°C° 0 mm 2 mps 748 mmHg 72%
    19:00 +1°C° 0 mm 2 mps 749 mmHg 73%
    20:00 +1°C° 0 mm 2 mps 749 mmHg 75%
    21:00 +1°C° 0 mm 2 mps 749 mmHg 75%
    22:00 0°C° 0 mm 3 mps 749 mmHg 75%
    23:00 0°C° 0 mm 3 mps 750 mmHg 75%

    29 October, Monday

    Time Temperature Precipitation Wind Pressure Humidity
    00:00 0°C° 0 mm 3 mps 749 mmHg 75%
    01:00 -1°C° 0 mm 4 mps 749 mmHg 74%
    02:00 -1°C° 0 mm 4 mps 749 mmHg 74%
    03:00 -1°C° 0.3 mm 5 mps 748 mmHg 76%
    04:00 -2°C° 0.3 mm 5 mps 748 mmHg 79%
    05:00 -3°C° 0.3 mm 6 mps 748 mmHg 81%
    06:00 -3°C° 1.1 mm 6 mps 748 mmHg 84%
    07:00 -3°C° 1.1 mm 6 mps 747 mmHg 87%
    08:00 -3°C° 1.1 mm 6 mps 747 mmHg 91%
    09:00 -3°C° 0.8 mm 6 mps 747 mmHg 90%
    10:00 -3°C° 0.8 mm 7 mps 746 mmHg 90%
    11:00 -2°C° 0.8 mm 7 mps 746 mmHg 89%
    12:00 -2°C° 0.2 mm 7 mps 745 mmHg 90%
    13:00 -2°C° 0.2 mm 7 mps 744 mmHg 90%
    14:00 -2°C° 0.2 mm 6 mps 744 mmHg 90%
    15:00 -2°C° 0.1 mm 6 mps 743 mmHg 91%
    16:00 -1°C° 0.1 mm 6 mps 743 mmHg 92%
    17:00 -1°C° 0.1 mm 6 mps 742 mmHg 93%
    18:00 -1°C° 0.1 mm 6 mps 742 mmHg 94%
    19:00 +1°C° 0.1 mm 5 mps 742 mmHg 95%
    20:00 +1°C° 0.1 mm 5 mps 741 mmHg 96%
    21:00 +2°C° 0.1 mm 5 mps 741 mmHg 96%
    22:00 +2°C° 0.1 mm 5 mps 740 mmHg 97%
    23:00 +3°C° 0.1 mm 5 mps 740 mmHg 97%
    Show more